OBJECT T, 59068

Orbit data source: Space-Track

You're viewing an Uncataloged Satellite

Recently launched and/or uncataloged satellites may have evolving metadata. Metadata may include but not limited to: Owner, Maufacturer, Bus, Motor, and Mission.

OBJECT T, 59068 is a satellite in LEO that was launched on Thu, 29 Feb 2024 UTC via a SOYUZ-2-1B launch vehicle from the Vostochny Cosmodrome (VOSTO). Unknown objects in Earth's orbit typically refer to objects detected orbiting the Earth but have not yet been identified or cataloged. These objects could be anything from previously untracked satellites, spent rocket stages, debris from satellite collisions, or even natural meteoroids temporarily captured by Earth's gravity.

Loading next visibility...
Identifier
59068, 2024-039T
Orbit
LEO
Country
Flag of TBDTBD
Related business
Manufacturer
Sputniks
Mission
Operational Commercial Communications
Bus & Motor
CUBESAT 3U?, Unknown motor
Mass
3 kg wet, 3 kg dry
Launch date (UTC)
2024-02-29 (2 years ago)
Launch vehicle
SOYUZ-2-1B
Launch site
Vostochny Cosmodrome (VOSTO)
Object type
Unknown
Shape & HBR
Box, 0.1 m
Radar Cross Section
0.035 m², Small (<0.1 m²)

Expand to show TLE details & history
Last TLE update: 7 hours ago

TLE from 7 hours ago
0 OBJECT T
1 59068U 24039T   26124.19710208  .00005424  00000-0  42016-3 0  9990
2 59068  95.3926 205.0276 0146826 120.7693 240.8084 14.93402107118176
Epoch: 2026-05-04T04:43Z
TLE epoch observation values (Epoch: 2026-05-04T04:43:49.619Z)
Latitude
-0.00005°
Longitude
-88.0189°
Altitude
641.467 km
Speed
7.51 km/s
True Right ascension
13h 40m 06s
True Declination
0° 00' 00"
Sunlit
Object was in full shadow at epoch
Visualization orbit readout
Latitude
Unknown
Longitude
Unknown
Altitude
Unknown
Speed
Unknown
Apparent Right ascension
Unknown
Apparent Declination
Unknown
Sunlit
N/A
Visualization observer readout
Local Sidereal Time
19:39:31
Azimuth
Unknown
Elevation
Unknown
Doppler factor
Unknown
Orbital elements
Apogee altitude
686.49 km
Perigee altitude
482.037 km
Semi-major axis
6,962.401 km
Eccentricity
0.01468
Inclination
95.3926°
RAAN
205.0276°
Arg. of periapsis
120.7693°
True anomaly
239.35278°
Mean anomaly
240.8084°
Eccentric anomaly
240.07927°
Mean motion
3.73598 °/min
Orbital period
96.36 mins
BSTAR
0.00042016
Loading maneuver chart data...
Computing Atmospheric mass density...
Loading historical data...
Loading historical data...
Loading historical data...
Loading historical data...
Loading historical data...
Loading historical data...
Loading historical data...

Documentation

Showing up to 5 results
|